Time,TemperatureF,DewpointF,PressureIn,WindDirection,WindDirectionDegrees,WindSpeedMPH,WindSpeedGustMPH,Humidity,HourlyPrecipIn,Conditions,Clouds,dailyrainin,SoftwareType,DateUTC
2013-02-16 00:00:00,40.3,34.3,29.98,NE,56,0.0,1.0,79,0.00,,,0.00,meteohub,2013-02-16 05:00:00,
2013-02-16 00:01:00,40.1,34.2,29.98,NE,56,0.0,1.0,79,0.00,,,0.00,meteohub,2013-02-16 05:01:00,
2013-02-16 00:06:00,39.9,34.0,29.98,NE,56,0.0,1.0,79,0.00,,,0.00,meteohub,2013-02-16 05:06:00,
2013-02-16 00:11:00,39.7,33.8,29.98,NE,56,0.0,1.0,79,0.00,,,0.00,meteohub,2013-02-16 05:11:00,
2013-02-16 00:16:00,39.6,34.0,29.98,NE,56,0.0,1.0,80,0.00,,,0.00,meteohub,2013-02-16 05:16:00,
2013-02-16 00:21:00,39.4,33.8,29.98,NE,56,0.0,1.0,80,0.00,,,0.00,meteohub,2013-02-16 05:21:00,
2013-02-16 00:23:00,39.2,33.8,29.98,NNW,348,1.0,1.0,81,0.00,,,0.00,meteohub,2013-02-16 05:23:00,
2013-02-16 00:28:00,39.0,33.6,29.98,NNW,348,0.0,1.0,81,0.00,,,0.00,meteohub,2013-02-16 05:28:00,
2013-02-16 00:33:00,39.0,34.0,29.98,NNW,348,0.0,1.0,82,0.00,,,0.00,meteohub,2013-02-16 05:33:00,
2013-02-16 00:38:00,38.8,33.8,29.98,NNW,347,0.0,1.0,82,0.00,,,0.00,meteohub,2013-02-16 05:38:00,
2013-02-16 00:43:00,38.8,33.8,29.98,NNW,347,0.0,1.0,82,0.00,,,0.00,meteohub,2013-02-16 05:43:00,
2013-02-16 00:48:00,38.7,33.6,29.97,NNW,347,0.0,1.0,82,0.00,,,0.00,meteohub,2013-02-16 05:48:00,
2013-02-16 00:53:00,38.5,33.8,29.97,NNW,347,0.0,1.0,83,0.00,,,0.00,meteohub,2013-02-16 05:53:00,
2013-02-16 00:58:00,38.3,33.6,29.97,NNW,347,0.0,1.0,83,0.00,,,0.00,meteohub,2013-02-16 05:58:00,
2013-02-16 01:03:00,38.3,33.6,29.97,SW,234,0.0,1.0,83,0.00,,,0.00,meteohub,2013-02-16 06:03:00,
2013-02-16 01:08:00,38.3,33.6,29.97,SW,229,0.0,1.0,83,0.00,,,0.00,meteohub,2013-02-16 06:08:00,
2013-02-16 01:13:00,38.5,33.4,29.97,SW,229,0.0,1.0,82,0.00,,,0.00,meteohub,2013-02-16 06:13:00,
2013-02-16 01:18:00,38.5,33.1,29.97,SW,229,0.0,1.0,81,0.00,,,0.00,meteohub,2013-02-16 06:18:00,
2013-02-16 01:23:00,38.5,32.9,29.97,SW,229,0.0,1.0,80,0.00,,,0.00,meteohub,2013-02-16 06:23:00,
2013-02-16 01:28:00,38.5,32.5,29.96,SW,229,0.0,1.0,79,0.00,,,0.00,meteohub,2013-02-16 06:28:00,
2013-02-16 01:33:00,38.5,32.5,29.97,SW,229,0.0,1.0,79,0.00,,,0.00,meteohub,2013-02-16 06:33:00,
2013-02-16 01:38:00,38.7,32.4,29.96,SW,231,0.0,1.0,78,0.00,,,0.00,meteohub,2013-02-16 06:38:00,
2013-02-16 01:43:00,38.7,31.8,29.96,SW,231,0.0,1.0,76,0.00,,,0.00,meteohub,2013-02-16 06:43:00,
2013-02-16 01:48:00,38.7,31.5,29.96,SW,231,0.0,1.0,75,0.00,,,0.00,meteohub,2013-02-16 06:48:00,
2013-02-16 01:53:00,38.7,30.7,29.96,SW,235,0.0,1.0,73,0.00,,,0.00,meteohub,2013-02-16 06:53:00,
2013-02-16 01:58:00,38.8,30.9,29.96,West,273,0.0,1.0,73,0.00,,,0.00,meteohub,2013-02-16 06:58:00,
2013-02-16 02:03:00,38.8,30.2,29.96,WSW,249,0.0,3.0,71,0.00,,,0.00,meteohub,2013-02-16 07:03:00,
2013-02-16 02:08:00,38.8,30.2,29.96,WSW,246,0.0,3.0,71,0.00,,,0.00,meteohub,2013-02-16 07:08:00,
2013-02-16 02:13:00,38.8,29.8,29.96,SW,224,0.0,1.0,70,0.00,,,0.00,meteohub,2013-02-16 07:13:00,
2013-02-16 02:18:00,38.8,29.8,29.95,SW,224,1.0,1.0,70,0.00,,,0.00,meteohub,2013-02-16 07:18:00,
2013-02-16 02:23:00,38.8,29.5,29.95,SW,224,0.0,1.0,69,0.00,,,0.00,meteohub,2013-02-16 07:23:00,
2013-02-16 02:28:00,38.8,29.8,29.95,SW,224,0.0,1.0,70,0.00,,,0.00,meteohub,2013-02-16 07:28:00,
2013-02-16 02:33:00,38.8,29.8,29.95,SW,225,0.0,1.0,70,0.00,,,0.00,meteohub,2013-02-16 07:33:00,
2013-02-16 02:38:00,38.8,29.5,29.95,NW,325,0.0,3.0,69,0.00,,,0.00,meteohub,2013-02-16 07:38:00,
2013-02-16 02:43:00,38.8,29.5,29.94,NW,324,1.0,3.0,69,0.00,,,0.00,meteohub,2013-02-16 07:43:00,
2013-02-16 02:48:00,38.8,29.5,29.94,NW,324,1.0,3.0,69,0.00,,,0.00,meteohub,2013-02-16 07:48:00,
2013-02-16 02:53:00,38.8,29.1,29.94,SW,226,0.0,2.0,68,0.00,,,0.00,meteohub,2013-02-16 07:53:00,
2013-02-16 02:58:00,38.8,29.1,29.94,SSW,210,0.0,2.0,68,0.00,,,0.00,meteohub,2013-02-16 07:58:00,
2013-02-16 03:03:00,38.8,29.5,29.94,SSW,210,0.0,2.0,69,0.00,,,0.00,meteohub,2013-02-16 08:03:00,
2013-02-16 03:08:00,38.7,29.3,29.94,SSW,210,1.0,2.0,69,0.00,,,0.00,meteohub,2013-02-16 08:08:00,
2013-02-16 03:13:00,38.7,29.3,29.94,South,180,0.0,2.0,69,0.00,,,0.00,meteohub,2013-02-16 08:13:00,
2013-02-16 03:18:00,38.5,29.1,29.94,South,180,0.0,1.0,69,0.00,,,0.00,meteohub,2013-02-16 08:18:00,
2013-02-16 03:24:00,38.5,29.5,29.94,South,180,0.0,1.0,70,0.00,,,0.00,meteohub,2013-02-16 08:24:00,
2013-02-16 03:28:00,38.5,29.5,29.93,South,180,0.0,1.0,70,0.00,,,0.00,meteohub,2013-02-16 08:28:00,
2013-02-16 03:34:00,38.5,29.5,29.94,South,180,0.0,0.0,70,0.00,,,0.00,meteohub,2013-02-16 08:34:00,
2013-02-16 03:39:00,38.5,29.5,29.93,South,181,0.0,0.0,70,0.00,,,0.00,meteohub,2013-02-16 08:39:00,
2013-02-16 03:44:00,38.5,29.5,29.94,South,169,0.0,0.0,70,0.00,,,0.00,meteohub,2013-02-16 08:44:00,
2013-02-16 03:49:00,38.5,29.8,29.94,South,169,0.0,1.0,71,0.00,,,0.00,meteohub,2013-02-16 08:49:00,
2013-02-16 03:54:00,38.3,29.7,29.93,South,169,0.0,1.0,71,0.00,,,0.00,meteohub,2013-02-16 08:54:00,
2013-02-16 03:59:00,38.3,29.7,29.93,South,169,0.0,1.0,71,0.00,,,0.00,meteohub,2013-02-16 08:59:00,
2013-02-16 04:04:00,38.1,29.8,29.93,South,169,0.0,0.0,72,0.00,,,0.00,meteohub,2013-02-16 09:04:00,
2013-02-16 04:09:00,38.1,29.8,29.93,South,169,0.0,0.0,72,0.00,,,0.00,meteohub,2013-02-16 09:09:00,
2013-02-16 04:14:00,37.9,29.7,29.93,South,169,0.0,0.0,72,0.00,,,0.00,meteohub,2013-02-16 09:14:00,
2013-02-16 04:19:00,37.9,29.7,29.92,South,169,0.0,0.0,72,0.00,,,0.00,meteohub,2013-02-16 09:19:00,
2013-02-16 04:24:00,37.8,29.8,29.93,South,169,0.0,0.0,73,0.00,,,0.00,meteohub,2013-02-16 09:24:00,
2013-02-16 04:29:00,37.8,29.5,29.92,SSW,211,0.0,0.0,72,0.00,,,0.00,meteohub,2013-02-16 09:29:00,
2013-02-16 04:34:00,37.8,29.8,29.93,SSW,211,0.0,1.0,73,0.00,,,0.00,meteohub,2013-02-16 09:34:00,
2013-02-16 04:39:00,37.6,29.7,29.93,SSW,211,0.0,1.0,73,0.00,,,0.00,meteohub,2013-02-16 09:39:00,
2013-02-16 04:44:00,37.6,29.7,29.93,SSW,211,0.0,1.0,73,0.00,,,0.00,meteohub,2013-02-16 09:44:00,
2013-02-16 04:49:00,37.8,29.8,29.92,NNE,29,0.0,1.0,73,0.00,,,0.00,meteohub,2013-02-16 09:49:00,
2013-02-16 04:54:00,37.8,29.8,29.93,South,181,0.0,1.0,73,0.00,,,0.00,meteohub,2013-02-16 09:54:00,
2013-02-16 04:59:00,37.9,30.0,29.93,West,274,0.0,1.0,73,0.00,,,0.00,meteohub,2013-02-16 09:59:00,
2013-02-16 05:04:00,37.9,30.0,29.93,West,274,0.0,2.0,73,0.00,,,0.00,meteohub,2013-02-16 10:04:00,
2013-02-16 05:09:00,37.9,30.0,29.93,West,267,0.0,2.0,73,0.00,,,0.00,meteohub,2013-02-16 10:09:00,
2013-02-16 05:14:00,37.9,30.0,29.94,NW,316,0.0,2.0,73,0.00,,,0.00,meteohub,2013-02-16 10:14:00,
2013-02-16 05:19:00,37.9,30.0,29.94,SW,229,0.0,1.0,73,0.00,,,0.00,meteohub,2013-02-16 10:19:00,
2013-02-16 05:24:00,37.8,29.8,29.93,NNW,347,1.0,2.0,73,0.00,,,0.00,meteohub,2013-02-16 10:24:00,
2013-02-16 05:29:00,37.8,29.5,29.93,North,352,1.0,2.0,72,0.00,,,0.00,meteohub,2013-02-16 10:29:00,
2013-02-16 05:34:00,37.8,29.8,29.93,NNW,348,1.0,2.0,73,0.00,,,0.00,meteohub,2013-02-16 10:34:00,
2013-02-16 05:39:00,37.8,29.8,29.93,NNE,29,0.0,2.0,73,0.00,,,0.00,meteohub,2013-02-16 10:39:00,
2013-02-16 05:44:00,37.6,29.7,29.93,NNW,347,1.0,2.0,73,0.00,,,0.00,meteohub,2013-02-16 10:44:00,
2013-02-16 05:49:00,37.6,29.7,29.93,NW,324,0.0,3.0,73,0.00,,,0.00,meteohub,2013-02-16 10:49:00,
2013-02-16 05:54:00,37.6,29.7,29.93,NW,325,1.0,3.0,73,0.00,,,0.00,meteohub,2013-02-16 10:54:00,
2013-02-16 05:59:00,37.6,29.3,29.94,NW,314,1.0,3.0,72,0.00,,,0.00,meteohub,2013-02-16 10:59:00,
2013-02-16 06:04:00,37.4,29.5,29.94,SSE,155,2.0,3.0,73,0.00,,,0.00,meteohub,2013-02-16 11:04:00,
2013-02-16 06:09:00,37.2,29.3,29.94,WSW,249,1.0,3.0,73,0.00,,,0.00,meteohub,2013-02-16 11:09:00,
2013-02-16 06:14:00,37.2,29.3,29.94,North,356,0.0,3.0,73,0.00,,,0.00,meteohub,2013-02-16 11:14:00,
2013-02-16 06:19:00,37.2,29.3,29.94,SSW,212,1.0,2.0,73,0.00,,,0.00,meteohub,2013-02-16 11:19:00,
2013-02-16 06:24:00,37.0,29.1,29.94,NNW,347,0.0,2.0,73,0.00,,,0.00,meteohub,2013-02-16 11:24:00,
2013-02-16 06:29:00,37.0,29.1,29.94,NNW,328,0.0,2.0,73,0.00,,,0.00,meteohub,2013-02-16 11:29:00,
2013-02-16 06:34:00,37.0,29.1,29.94,North,355,0.0,2.0,73,0.00,,,0.00,meteohub,2013-02-16 11:34:00,
2013-02-16 06:39:00,36.9,29.3,29.94,WSW,246,0.0,2.0,74,0.00,,,0.00,meteohub,2013-02-16 11:39:00,
2013-02-16 06:44:00,36.9,28.9,29.94,WSW,258,1.0,2.0,73,0.00,,,0.00,meteohub,2013-02-16 11:44:00,
2013-02-16 06:49:00,36.9,28.9,29.94,NNW,331,0.0,2.0,73,0.00,,,0.00,meteohub,2013-02-16 11:49:00,
2013-02-16 06:54:00,36.7,29.1,29.94,WSW,239,0.0,2.0,74,0.00,,,0.00,meteohub,2013-02-16 11:54:00,
2013-02-16 06:59:00,36.7,29.1,29.94,SW,231,1.0,2.0,74,0.00,,,0.00,meteohub,2013-02-16 11:59:00,
2013-02-16 07:04:00,36.7,29.1,29.95,WSW,249,0.0,2.0,74,0.00,,,0.00,meteohub,2013-02-16 12:04:00,
2013-02-16 07:09:00,36.5,28.9,29.95,WSW,239,0.0,1.0,74,0.00,,,0.00,meteohub,2013-02-16 12:09:00,
2013-02-16 07:14:00,36.5,28.9,29.95,NW,319,0.0,1.0,74,0.00,,,0.00,meteohub,2013-02-16 12:14:00,
2013-02-16 07:19:00,36.3,28.8,29.95,South,176,0.0,1.0,74,0.00,,,0.00,meteohub,2013-02-16 12:19:00,
2013-02-16 07:24:00,36.3,28.8,29.95,SE,142,1.0,2.0,74,0.00,,,0.00,meteohub,2013-02-16 12:24:00,
2013-02-16 07:29:00,36.3,28.6,29.94,SW,224,0.0,2.0,73,0.00,,,0.00,meteohub,2013-02-16 12:29:00,
2013-02-16 07:34:00,36.3,28.8,29.94,SW,224,0.0,2.0,74,0.00,,,0.00,meteohub,2013-02-16 12:34:00,
2013-02-16 07:39:00,36.3,28.8,29.94,SSW,208,0.0,3.0,74,0.00,,,0.00,meteohub,2013-02-16 12:39:00,
2013-02-16 07:44:00,36.3,28.8,29.94,SSW,208,0.0,3.0,74,0.00,,,0.00,meteohub,2013-02-16 12:44:00,
2013-02-16 07:49:00,36.3,28.8,29.94,SSW,208,0.0,1.0,74,0.00,,,0.00,meteohub,2013-02-16 12:49:00,
2013-02-16 07:54:00,36.3,29.1,29.94,NNW,343,1.0,1.0,75,0.00,,,0.00,meteohub,2013-02-16 12:54:00,
2013-02-16 07:59:00,36.3,28.8,29.94,NNW,331,0.0,1.0,74,0.00,,,0.00,meteohub,2013-02-16 12:59:00,
2013-02-16 08:04:00,36.3,28.8,29.94,SW,225,0.0,2.0,74,0.00,,,0.00,meteohub,2013-02-16 13:04:00,
2013-02-16 08:09:00,36.3,28.8,29.95,SW,225,0.0,2.0,74,0.00,,,0.00,meteohub,2013-02-16 13:09:00,
2013-02-16 08:14:00,36.3,28.8,29.95,NNW,335,0.0,1.0,74,0.00,,,0.00,meteohub,2013-02-16 13:14:00,
2013-02-16 08:19:00,36.3,28.8,29.95,SSW,212,1.0,1.0,74,0.00,,,0.00,meteohub,2013-02-16 13:19:00,
2013-02-16 08:24:00,36.3,28.8,29.95,SSE,166,0.0,1.0,74,0.00,,,0.00,meteohub,2013-02-16 13:24:00,
2013-02-16 08:29:00,36.5,28.9,29.95,South,186,1.0,1.0,74,0.00,,,0.00,meteohub,2013-02-16 13:29:00,
2013-02-16 08:34:00,36.7,29.1,29.95,SSE,159,0.0,1.0,74,0.00,,,0.00,meteohub,2013-02-16 13:34:00,
2013-02-16 08:39:00,36.7,29.1,29.95,SSW,204,0.0,3.0,74,0.00,,,0.00,meteohub,2013-02-16 13:39:00,
2013-02-16 08:44:00,36.9,29.3,29.95,SSE,155,2.0,3.0,74,0.00,,,0.00,meteohub,2013-02-16 13:44:00,
2013-02-16 08:50:00,36.9,28.9,29.95,WSW,246,0.0,3.0,73,0.00,,,0.00,meteohub,2013-02-16 13:50:00,
2013-02-16 08:55:00,36.9,29.3,29.95,WNW,284,1.0,3.0,74,0.00,,,0.00,meteohub,2013-02-16 13:55:00,
2013-02-16 09:00:00,36.9,29.3,29.96,South,190,0.0,2.0,74,0.00,,,0.00,meteohub,2013-02-16 14:00:00,
2013-02-16 09:05:00,37.0,29.5,29.96,SW,221,1.0,2.0,74,0.00,,,0.00,meteohub,2013-02-16 14:05:00,
2013-02-16 09:10:00,37.0,29.1,29.96,SW,219,1.0,2.0,73,0.00,,,0.00,meteohub,2013-02-16 14:10:00,
2013-02-16 09:15:00,37.0,29.1,29.96,NW,319,1.0,3.0,73,0.00,,,0.00,meteohub,2013-02-16 14:15:00,
2013-02-16 09:20:00,37.0,29.5,29.96,WNW,301,1.0,3.0,74,0.00,,,0.00,meteohub,2013-02-16 14:20:00,
2013-02-16 09:25:00,37.0,29.8,29.96,NW,308,1.0,6.0,75,0.00,,,0.00,meteohub,2013-02-16 14:25:00,
2013-02-16 09:30:00,37.0,29.8,29.96,WSW,248,1.0,6.0,75,0.00,,,0.00,meteohub,2013-02-16 14:30:00,
2013-02-16 09:35:00,37.2,30.0,29.96,NNW,343,1.0,6.0,75,0.00,,,0.00,meteohub,2013-02-16 14:35:00,
2013-02-16 09:40:00,37.2,30.0,29.96,SSW,205,1.0,5.0,75,0.00,,,0.00,meteohub,2013-02-16 14:40:00,
2013-02-16 09:45:00,37.0,30.2,29.96,NNW,330,1.0,5.0,76,0.00,,,0.00,meteohub,2013-02-16 14:45:00,
2013-02-16 09:50:00,37.0,30.2,29.96,West,266,1.0,5.0,76,0.00,,,0.00,meteohub,2013-02-16 14:50:00,
2013-02-16 09:55:00,37.0,30.2,29.96,WNW,302,1.0,5.0,76,0.00,,,0.00,meteohub,2013-02-16 14:55:00,
2013-02-16 10:00:00,37.2,30.4,29.96,West,267,0.0,5.0,76,0.00,,,0.00,meteohub,2013-02-16 15:00:00,
2013-02-16 10:05:00,37.2,30.4,29.96,SSW,205,1.0,5.0,76,0.00,,,0.00,meteohub,2013-02-16 15:05:00,
2013-02-16 10:10:00,37.4,30.2,29.96,SW,229,2.0,5.0,75,0.00,,,0.00,meteohub,2013-02-16 15:10:00,
2013-02-16 10:15:00,37.6,30.4,29.96,NNW,340,2.0,5.0,75,0.00,,,0.00,meteohub,2013-02-16 15:15:00,
2013-02-16 10:20:00,37.8,29.1,29.96,WNW,297,3.0,7.0,71,0.00,,,0.00,meteohub,2013-02-16 15:20:00,
2013-02-16 10:25:00,37.9,29.3,29.95,NNW,331,3.0,7.0,71,0.00,,,0.00,meteohub,2013-02-16 15:25:00,
2013-02-16 10:30:00,37.9,28.4,29.95,West,266,1.0,5.0,68,0.00,,,0.00,meteohub,2013-02-16 15:30:00,
2013-02-16 10:35:00,37.9,28.8,29.95,WNW,294,1.0,5.0,69,0.00,,,0.00,meteohub,2013-02-16 15:35:00,
2013-02-16 10:40:00,37.8,26.6,29.95,West,274,3.0,9.0,64,0.00,,,0.00,meteohub,2013-02-16 15:40:00,
2013-02-16 10:45:00,37.8,26.2,29.96,WNW,285,2.0,9.0,63,0.00,,,0.00,meteohub,2013-02-16 15:45:00,
2013-02-16 10:50:00,38.1,26.6,29.95,SW,233,4.0,9.0,63,0.00,,,0.00,meteohub,2013-02-16 15:50:00,
2013-02-16 10:55:00,38.7,26.1,29.95,WNW,284,1.0,5.0,60,0.00,,,0.00,meteohub,2013-02-16 15:55:00,
2013-02-16 11:00:00,38.8,26.1,29.94,NNW,348,1.0,5.0,60,0.00,,,0.00,meteohub,2013-02-16 16:00:00,
2013-02-16 11:05:00,38.8,25.3,29.94,NW,321,1.0,8.0,58,0.00,,,0.00,meteohub,2013-02-16 16:05:00,
2013-02-16 11:10:00,39.0,25.2,29.94,WSW,252,2.0,8.0,57,0.00,,,0.00,meteohub,2013-02-16 16:10:00,
2013-02-16 11:12:00,39.0,25.2,29.94,SW,226,2.0,8.0,57,0.00,,,0.00,meteohub,2013-02-16 16:12:00,
2013-02-16 11:17:00,39.2,25.2,29.94,SSE,167,4.0,9.0,57,0.00,,,0.00,meteohub,2013-02-16 16:17:00,
2013-02-16 11:22:00,39.6,25.5,29.94,North,6,11.0,11.0,57,0.00,,,0.00,meteohub,2013-02-16 16:22:00,
2013-02-16 11:27:00,39.9,24.6,29.94,SE,136,2.0,12.0,54,0.00,,,0.00,meteohub,2013-02-16 16:27:00,
2013-02-16 11:32:00,39.9,23.7,29.94,WNW,287,0.0,12.0,52,0.00,,,0.00,meteohub,2013-02-16 16:32:00,
2013-02-16 11:37:00,39.9,23.7,29.94,South,181,2.0,12.0,52,0.00,,,0.00,meteohub,2013-02-16 16:37:00,
2013-02-16 11:42:00,39.7,24.1,29.94,South,188,2.0,7.0,53,0.00,,,0.00,meteohub,2013-02-16 16:42:00,
2013-02-16 11:47:00,39.6,23.9,29.94,SSW,203,2.0,8.0,53,0.00,,,0.00,meteohub,2013-02-16 16:47:00,
2013-02-16 11:52:00,39.4,23.7,29.94,NW,319,5.0,8.0,53,0.00,,,0.00,meteohub,2013-02-16 16:52:00,
2013-02-16 11:57:00,38.8,24.1,29.94,SW,222,4.0,9.0,55,0.00,,,0.00,meteohub,2013-02-16 16:57:00,
2013-02-16 12:02:00,38.5,23.7,29.94,ESE,103,7.0,9.0,55,0.00,,,0.00,meteohub,2013-02-16 17:02:00,
2013-02-16 12:07:00,38.5,23.4,29.94,NW,321,5.0,9.0,54,0.00,,,0.00,meteohub,2013-02-16 17:07:00,
2013-02-16 12:12:00,38.8,20.3,29.94,SW,228,2.0,8.0,47,0.00,,,0.00,meteohub,2013-02-16 17:12:00,
2013-02-16 12:17:00,39.4,21.4,29.94,NNW,340,4.0,8.0,48,0.00,,,0.00,meteohub,2013-02-16 17:17:00,
2013-02-16 12:22:00,40.3,22.6,29.94,WSW,249,1.0,9.0,49,0.00,,,0.00,meteohub,2013-02-16 17:22:00,
2013-02-16 12:27:00,40.5,21.4,29.94,SSW,200,5.0,9.0,46,0.00,,,0.00,meteohub,2013-02-16 17:27:00,
2013-02-16 12:32:00,39.7,20.7,29.94,NW,312,1.0,9.0,46,0.00,,,0.00,meteohub,2013-02-16 17:32:00,
2013-02-16 12:37:00,39.4,20.3,29.94,West,278,1.0,9.0,46,0.00,,,0.00,meteohub,2013-02-16 17:37:00,
2013-02-16 12:42:00,39.4,19.2,29.93,SSE,167,5.0,9.0,44,0.00,,,0.00,meteohub,2013-02-16 17:42:00,
2013-02-16 12:47:00,39.6,19.4,29.93,NNW,334,7.0,9.0,44,0.00,,,0.00,meteohub,2013-02-16 17:47:00,
2013-02-16 12:52:00,39.2,17.4,29.93,WSW,243,3.0,11.0,41,0.00,,,0.00,meteohub,2013-02-16 17:52:00,
2013-02-16 12:57:00,39.7,18.0,29.92,SSE,152,1.0,11.0,41,0.00,,,0.00,meteohub,2013-02-16 17:57:00,
2013-02-16 13:02:00,40.6,18.1,29.92,West,264,1.0,11.0,40,0.00,,,0.00,meteohub,2013-02-16 18:02:00,
2013-02-16 13:07:00,41.2,18.7,29.92,South,186,4.0,13.0,40,0.00,,,0.00,meteohub,2013-02-16 18:07:00,
2013-02-16 13:12:00,40.8,17.8,29.92,SSW,212,4.0,13.0,39,0.00,,,0.00,meteohub,2013-02-16 18:12:00,
2013-02-16 13:17:00,40.1,17.1,29.92,North,349,3.0,10.0,39,0.00,,,0.00,meteohub,2013-02-16 18:17:00,
2013-02-16 13:22:00,40.1,17.8,29.92,North,358,4.0,10.0,40,0.00,,,0.00,meteohub,2013-02-16 18:22:00,
2013-02-16 13:27:00,39.7,16.9,29.92,SW,217,3.0,10.0,39,0.00,,,0.00,meteohub,2013-02-16 18:27:00,
2013-02-16 13:32:00,39.7,16.2,29.92,North,349,3.0,7.0,38,0.00,,,0.00,meteohub,2013-02-16 18:32:00,
2013-02-16 13:37:00,39.9,15.8,29.92,NW,309,3.0,11.0,37,0.00,,,0.00,meteohub,2013-02-16 18:37:00,
2013-02-16 13:42:00,40.5,16.9,29.91,NW,309,4.0,11.0,38,0.00,,,0.00,meteohub,2013-02-16 18:42:00,
2013-02-16 13:47:00,40.6,17.6,29.92,NW,322,3.0,11.0,39,0.00,,,0.00,meteohub,2013-02-16 18:47:00,
2013-02-16 13:52:00,41.4,18.3,29.92,SW,215,2.0,12.0,39,0.00,,,0.00,meteohub,2013-02-16 18:52:00,
2013-02-16 13:57:00,42.1,17.6,29.92,NNW,328,3.0,12.0,37,0.00,,,0.00,meteohub,2013-02-16 18:57:00,
2013-02-16 14:02:00,41.0,16.7,29.92,NNW,335,4.0,9.0,37,0.00,,,0.00,meteohub,2013-02-16 19:02:00,
2013-02-16 14:07:00,39.9,15.8,29.92,NW,315,2.0,9.0,37,0.00,,,0.00,meteohub,2013-02-16 19:07:00,
2013-02-16 14:12:00,39.7,16.2,29.92,WNW,295,3.0,9.0,38,0.00,,,0.00,meteohub,2013-02-16 19:12:00,
2013-02-16 14:17:00,39.9,15.8,29.92,NW,323,3.0,13.0,37,0.00,,,0.00,meteohub,2013-02-16 19:17:00,
2013-02-16 14:22:00,39.4,14.0,29.92,NNW,342,6.0,13.0,35,0.00,,,0.00,meteohub,2013-02-16 19:22:00,
2013-02-16 14:27:00,38.8,14.2,29.92,NW,316,4.0,11.0,36,0.00,,,0.00,meteohub,2013-02-16 19:27:00,
2013-02-16 14:32:00,38.5,14.5,29.92,South,180,5.0,12.0,37,0.00,,,0.00,meteohub,2013-02-16 19:32:00,
2013-02-16 14:37:00,38.5,15.1,29.92,WNW,295,2.0,12.0,38,0.00,,,0.00,meteohub,2013-02-16 19:37:00,
2013-02-16 14:41:00,38.3,14.4,29.93,NNW,337,5.0,12.0,37,0.00,,,0.00,meteohub,2013-02-16 19:41:00,
2013-02-16 14:47:00,37.9,14.0,29.93,North,358,3.0,10.0,37,0.00,,,0.00,meteohub,2013-02-16 19:47:00,
2013-02-16 14:52:00,38.1,14.7,29.93,WSW,250,1.0,11.0,38,0.00,,,0.00,meteohub,2013-02-16 19:52:00,
2013-02-16 14:57:00,37.9,13.3,29.93,SW,228,2.0,11.0,36,0.00,,,0.00,meteohub,2013-02-16 19:57:00,
2013-02-16 15:02:00,37.8,13.3,29.93,West,274,1.0,11.0,36,0.00,,,0.00,meteohub,2013-02-16 20:02:00,
2013-02-16 15:07:00,37.9,14.5,29.93,South,169,2.0,8.0,38,0.00,,,0.00,meteohub,2013-02-16 20:07:00,
2013-02-16 15:12:00,37.9,14.5,29.93,North,356,1.0,8.0,38,0.00,,,0.00,meteohub,2013-02-16 20:12:00,
2013-02-16 15:17:00,38.1,12.9,29.94,NNW,339,5.0,9.0,35,0.00,,,0.00,meteohub,2013-02-16 20:17:00,
2013-02-16 15:22:00,38.1,13.5,29.94,NNW,338,3.0,10.0,36,0.00,,,0.00,meteohub,2013-02-16 20:22:00,
2013-02-16 15:27:00,38.7,14.0,29.94,SSW,197,2.0,10.0,36,0.00,,,0.00,meteohub,2013-02-16 20:27:00,
2013-02-16 15:32:00,38.8,14.7,29.94,North,6,4.0,10.0,37,0.00,,,0.00,meteohub,2013-02-16 20:32:00,
2013-02-16 15:37:00,38.7,14.5,29.94,South,170,6.0,10.0,37,0.00,,,0.00,meteohub,2013-02-16 20:37:00,
2013-02-16 15:42:00,38.5,15.1,29.94,NNW,348,4.0,10.0,38,0.00,,,0.00,meteohub,2013-02-16 20:42:00,
2013-02-16 15:47:00,37.6,14.9,29.95,NW,312,4.0,8.0,39,0.00,,,0.00,meteohub,2013-02-16 20:47:00,
2013-02-16 15:52:00,37.0,13.1,29.95,NNW,330,2.0,9.0,37,0.00,,,0.00,meteohub,2013-02-16 20:52:00,
2013-02-16 15:57:00,37.0,13.1,29.95,NNW,348,7.0,9.0,37,0.00,,,0.00,meteohub,2013-02-16 20:57:00,
2013-02-16 16:02:00,37.2,14.0,29.95,NNW,345,7.0,11.0,38,0.00,,,0.00,meteohub,2013-02-16 21:02:00,
2013-02-16 16:07:00,37.6,13.6,29.96,WNW,288,5.0,11.0,37,0.00,,,0.00,meteohub,2013-02-16 21:07:00,
2013-02-16 16:12:00,37.8,13.3,29.96,West,276,4.0,13.0,36,0.00,,,0.00,meteohub,2013-02-16 21:12:00,
2013-02-16 16:17:00,37.6,13.6,29.96,NW,318,2.0,13.0,37,0.00,,,0.00,meteohub,2013-02-16 21:17:00,
2013-02-16 16:22:00,37.6,13.6,29.96,WNW,293,4.0,12.0,37,0.00,,,0.00,meteohub,2013-02-16 21:22:00,
2013-02-16 16:27:00,37.2,12.7,29.96,WNW,302,4.0,12.0,36,0.00,,,0.00,meteohub,2013-02-16 21:27:00,
2013-02-16 16:32:00,36.9,11.8,29.97,SW,232,3.0,13.0,35,0.00,,,0.00,meteohub,2013-02-16 21:32:00,
2013-02-16 16:37:00,36.9,12.4,29.97,SSW,208,4.0,13.0,36,0.00,,,0.00,meteohub,2013-02-16 21:37:00,
2013-02-16 16:42:00,37.2,12.0,29.97,WSW,248,2.0,13.0,35,0.00,,,0.00,meteohub,2013-02-16 21:42:00,
2013-02-16 16:47:00,37.8,13.3,29.97,NNW,327,4.0,11.0,36,0.00,,,0.00,meteohub,2013-02-16 21:47:00,
2013-02-16 16:52:00,37.6,13.1,29.97,NNE,16,9.0,21.0,36,0.00,,,0.00,meteohub,2013-02-16 21:52:00,
2013-02-16 16:57:00,37.2,13.3,29.97,North,354,5.0,21.0,37,0.00,,,0.00,meteohub,2013-02-16 21:57:00,
2013-02-16 17:02:00,37.6,12.4,29.98,SE,127,9.0,21.0,35,0.00,,,0.00,meteohub,2013-02-16 22:02:00,
2013-02-16 17:07:00,37.4,14.2,29.98,SSW,205,4.0,12.0,38,0.00,,,0.00,meteohub,2013-02-16 22:07:00,
2013-02-16 17:12:00,37.2,14.0,29.98,NNW,345,6.0,9.0,38,0.00,,,0.00,meteohub,2013-02-16 22:12:00,
2013-02-16 17:17:00,37.0,14.4,29.98,SW,235,3.0,10.0,39,0.00,,,0.00,meteohub,2013-02-16 22:17:00,
2013-02-16 17:22:00,36.7,14.5,29.98,South,187,1.0,10.0,40,0.00,,,0.00,meteohub,2013-02-16 22:22:00,
2013-02-16 17:27:00,36.3,14.9,29.99,NW,325,2.0,10.0,41,0.00,,,0.00,meteohub,2013-02-16 22:27:00,
2013-02-16 17:32:00,36.1,14.2,29.99,WSW,252,4.0,9.0,40,0.00,,,0.00,meteohub,2013-02-16 22:32:00,
2013-02-16 17:37:00,35.8,13.8,29.99,South,172,7.0,9.0,40,0.00,,,0.00,meteohub,2013-02-16 22:37:00,
2013-02-16 17:42:00,35.2,13.3,29.99,North,351,2.0,13.0,40,0.00,,,0.00,meteohub,2013-02-16 22:42:00,
2013-02-16 17:47:00,34.7,12.9,29.99,NW,307,3.0,13.0,40,0.00,,,0.00,meteohub,2013-02-16 22:47:00,
2013-02-16 17:52:00,34.3,13.6,30.00,NW,322,2.0,13.0,42,0.00,,,0.00,meteohub,2013-02-16 22:52:00,
2013-02-16 17:57:00,34.2,13.5,30.00,NW,319,6.0,11.0,42,0.00,,,0.00,meteohub,2013-02-16 22:57:00,
2013-02-16 18:02:00,34.2,13.5,30.00,WNW,300,1.0,11.0,42,0.00,,,0.00,meteohub,2013-02-16 23:02:00,
2013-02-16 18:07:00,34.0,13.8,30.00,WSW,257,1.0,9.0,43,0.00,,,0.00,meteohub,2013-02-16 23:07:00,
2013-02-16 18:12:00,33.6,12.9,30.01,SSW,198,2.0,9.0,42,0.00,,,0.00,meteohub,2013-02-16 23:12:00,
2013-02-16 18:17:00,33.4,13.3,30.01,WNW,297,3.0,8.0,43,0.00,,,0.00,meteohub,2013-02-16 23:17:00,
2013-02-16 18:22:00,33.3,13.6,30.01,South,173,4.0,8.0,44,0.00,,,0.00,meteohub,2013-02-16 23:22:00,
2013-02-16 18:27:00,33.3,14.2,30.02,North,352,6.0,8.0,45,0.00,,,0.00,meteohub,2013-02-16 23:27:00,
2013-02-16 18:32:00,33.1,14.5,30.02,NNW,329,4.0,12.0,46,0.00,,,0.00,meteohub,2013-02-16 23:32:00,
2013-02-16 18:37:00,32.9,14.9,30.02,NNW,345,2.0,12.0,47,0.00,,,0.00,meteohub,2013-02-16 23:37:00,
2013-02-16 18:42:00,32.7,14.7,30.03,NW,318,4.0,12.0,47,0.00,,,0.00,meteohub,2013-02-16 23:42:00,
2013-02-16 18:47:00,32.5,14.5,30.03,West,262,3.0,8.0,47,0.00,,,0.00,meteohub,2013-02-16 23:47:00,
2013-02-16 18:52:00,32.4,14.9,30.03,WNW,291,1.0,8.0,48,0.00,,,0.00,meteohub,2013-02-16 23:52:00,
2013-02-16 18:57:00,32.2,14.7,30.04,NNW,339,3.0,7.0,48,0.00,,,0.00,meteohub,2013-02-16 23:57:00,
2013-02-16 19:02:00,32.2,14.7,30.04,NW,319,4.0,7.0,48,0.00,,,0.00,meteohub,2013-02-17 00:02:00,
2013-02-16 19:07:00,31.8,14.4,30.04,SW,236,1.0,7.0,48,0.00,,,0.00,meteohub,2013-02-17 00:07:00,
2013-02-16 19:12:00,31.8,14.4,30.04,NW,319,2.0,7.0,48,0.00,,,0.00,meteohub,2013-02-17 00:12:00,
2013-02-16 19:17:00,31.8,14.4,30.04,NNW,345,2.0,6.0,48,0.00,,,0.00,meteohub,2013-02-17 00:17:00,
2013-02-16 19:22:00,31.8,14.4,30.04,South,174,1.0,10.0,48,0.00,,,0.00,meteohub,2013-02-17 00:22:00,
2013-02-16 19:27:00,31.6,14.2,30.04,SW,229,1.0,10.0,48,0.00,,,0.00,meteohub,2013-02-17 00:27:00,
2013-02-16 19:32:00,31.6,14.7,30.04,West,266,1.0,8.0,49,0.00,,,0.00,meteohub,2013-02-17 00:32:00,
2013-02-16 19:37:00,31.5,14.9,30.04,West,270,0.0,6.0,50,0.00,,,0.00,meteohub,2013-02-17 00:37:00,
2013-02-16 19:42:00,31.5,14.5,30.04,SW,218,1.0,6.0,49,0.00,,,0.00,meteohub,2013-02-17 00:42:00,
2013-02-16 19:47:00,31.3,14.7,30.05,WSW,237,0.0,5.0,50,0.00,,,0.00,meteohub,2013-02-17 00:47:00,
2013-02-16 19:52:00,31.1,15.1,30.05,SE,143,0.0,4.0,51,0.00,,,0.00,meteohub,2013-02-17 00:52:00,
2013-02-16 19:57:00,30.9,14.9,30.05,WSW,246,0.0,4.0,51,0.00,,,0.00,meteohub,2013-02-17 00:57:00,
2013-02-16 20:02:00,30.7,15.3,30.05,SW,218,0.0,4.0,52,0.00,,,0.00,meteohub,2013-02-17 01:02:00,
2013-02-16 20:07:00,30.6,15.4,30.06,SW,218,0.0,4.0,53,0.00,,,0.00,meteohub,2013-02-17 01:07:00,
2013-02-16 20:12:00,30.2,15.6,30.06,SW,219,1.0,2.0,54,0.00,,,0.00,meteohub,2013-02-17 01:12:00,
2013-02-16 20:17:00,30.0,15.4,30.06,WSW,258,0.0,1.0,54,0.00,,,0.00,meteohub,2013-02-17 01:17:00,
2013-02-16 20:22:00,30.0,15.4,30.06,South,181,1.0,2.0,54,0.00,,,0.00,meteohub,2013-02-17 01:22:00,
2013-02-16 20:27:00,29.8,15.3,30.06,SSW,212,1.0,2.0,54,0.00,,,0.00,meteohub,2013-02-17 01:27:00,
2013-02-16 20:32:00,29.8,15.6,30.06,WNW,295,0.0,2.0,55,0.00,,,0.00,meteohub,2013-02-17 01:32:00,
2013-02-16 20:37:00,29.7,15.4,30.06,SW,231,0.0,2.0,55,0.00,,,0.00,meteohub,2013-02-17 01:37:00,
2013-02-16 20:42:00,29.7,15.8,30.07,SSW,207,0.0,2.0,56,0.00,,,0.00,meteohub,2013-02-17 01:42:00,
2013-02-16 20:47:00,29.5,15.8,30.07,NW,325,0.0,3.0,56,0.00,,,0.00,meteohub,2013-02-17 01:47:00,
2013-02-16 20:52:00,29.3,15.6,30.07,SSE,147,0.0,3.0,56,0.00,,,0.00,meteohub,2013-02-17 01:52:00,
2013-02-16 20:57:00,29.1,15.4,30.08,SSE,150,0.0,2.0,56,0.00,,,0.00,meteohub,2013-02-17 01:57:00,
2013-02-16 21:02:00,29.1,14.9,30.08,SSW,200,1.0,2.0,55,0.00,,,0.00,meteohub,2013-02-17 02:02:00,
2013-02-16 21:07:00,29.1,14.9,30.08,SSW,207,5.0,5.0,55,0.00,,,0.00,meteohub,2013-02-17 02:07:00,
2013-02-16 21:12:00,29.3,14.7,30.08,SE,124,3.0,5.0,54,0.00,,,0.00,meteohub,2013-02-17 02:12:00,
2013-02-16 21:17:00,29.5,14.9,30.08,SW,222,0.0,5.0,54,0.00,,,0.00,meteohub,2013-02-17 02:17:00,
2013-02-16 21:22:00,29.5,14.9,30.09,NW,314,1.0,5.0,54,0.00,,,0.00,meteohub,2013-02-17 02:22:00,
2013-02-16 21:27:00,29.7,15.1,30.09,SSW,211,1.0,5.0,54,0.00,,,0.00,meteohub,2013-02-17 02:27:00,
2013-02-16 21:32:00,29.7,15.4,30.09,South,179,1.0,5.0,55,0.00,,,0.00,meteohub,2013-02-17 02:32:00,
2013-02-16 21:37:00,29.8,15.3,30.09,WNW,294,3.0,10.0,54,0.00,,,0.00,meteohub,2013-02-17 02:37:00,
2013-02-16 21:42:00,29.8,15.3,30.09,West,279,2.0,10.0,54,0.00,,,0.00,meteohub,2013-02-17 02:42:00,
2013-02-16 21:47:00,30.0,15.4,30.09,South,180,5.0,7.0,54,0.00,,,0.00,meteohub,2013-02-17 02:47:00,
2013-02-16 21:52:00,30.0,14.9,30.10,West,280,1.0,14.0,53,0.00,,,0.00,meteohub,2013-02-17 02:52:00,
2013-02-16 21:57:00,29.8,15.3,30.09,SSE,152,3.0,14.0,54,0.00,,,0.00,meteohub,2013-02-17 02:57:00,
2013-02-16 22:02:00,29.8,15.3,30.09,West,274,1.0,14.0,54,0.00,,,0.00,meteohub,2013-02-17 03:02:00,
2013-02-16 22:07:00,29.7,15.1,30.10,South,184,2.0,7.0,54,0.00,,,0.00,meteohub,2013-02-17 03:07:00,
2013-02-16 22:12:00,29.7,14.5,30.10,NW,316,4.0,7.0,53,0.00,,,0.00,meteohub,2013-02-17 03:12:00,
2013-02-16 22:17:00,29.7,15.1,30.10,NNW,336,2.0,8.0,54,0.00,,,0.00,meteohub,2013-02-17 03:17:00,
2013-02-16 22:22:00,29.7,15.1,30.10,NNW,343,2.0,8.0,54,0.00,,,0.00,meteohub,2013-02-17 03:22:00,
2013-02-16 22:27:00,29.7,14.5,30.10,West,281,0.0,8.0,53,0.00,,,0.00,meteohub,2013-02-17 03:27:00,
2013-02-16 22:32:00,29.7,15.1,30.10,SW,221,2.0,10.0,54,0.00,,,0.00,meteohub,2013-02-17 03:32:00,
2013-02-16 22:37:00,29.7,15.1,30.10,SW,218,2.0,10.0,54,0.00,,,0.00,meteohub,2013-02-17 03:37:00,
2013-02-16 22:42:00,29.5,14.9,30.10,North,349,4.0,10.0,54,0.00,,,0.00,meteohub,2013-02-17 03:42:00,
2013-02-16 22:47:00,29.5,14.5,30.10,NW,316,1.0,9.0,53,0.00,,,0.00,meteohub,2013-02-17 03:47:00,
2013-02-16 22:52:00,29.5,14.5,30.10,NNW,335,4.0,7.0,53,0.00,,,0.00,meteohub,2013-02-17 03:52:00,
2013-02-16 22:57:00,29.3,14.4,30.10,WNW,302,2.0,8.0,53,0.00,,,0.00,meteohub,2013-02-17 03:57:00,
2013-02-16 23:02:00,29.3,14.7,30.11,West,262,1.0,8.0,54,0.00,,,0.00,meteohub,2013-02-17 04:02:00,
2013-02-16 23:07:00,29.1,14.2,30.11,North,356,3.0,8.0,53,0.00,,,0.00,meteohub,2013-02-17 04:07:00,
2013-02-16 23:12:00,29.1,14.2,30.10,NW,314,0.0,7.0,53,0.00,,,0.00,meteohub,2013-02-17 04:12:00,
2013-02-16 23:17:00,29.1,14.2,30.10,NNW,344,3.0,7.0,53,0.00,,,0.00,meteohub,2013-02-17 04:17:00,
2013-02-16 23:22:00,28.9,14.0,30.10,NW,307,0.0,7.0,53,0.00,,,0.00,meteohub,2013-02-17 04:22:00,
2013-02-16 23:27:00,28.9,14.0,30.10,NNW,339,4.0,5.0,53,0.00,,,0.00,meteohub,2013-02-17 04:27:00,
2013-02-16 23:32:00,28.9,14.0,30.10,NW,305,2.0,6.0,53,0.00,,,0.00,meteohub,2013-02-17 04:32:00,
2013-02-16 23:37:00,28.9,14.0,30.10,SSE,166,2.0,8.0,53,0.00,,,0.00,meteohub,2013-02-17 04:37:00,
2013-02-16 23:42:00,28.8,13.8,30.10,NW,322,2.0,10.0,53,0.00,,,0.00,meteohub,2013-02-17 04:42:00,
2013-02-16 23:47:00,28.8,13.8,30.11,WNW,289,1.0,10.0,53,0.00,,,0.00,meteohub,2013-02-17 04:47:00,
2013-02-16 23:52:00,28.6,13.1,30.11,SW,231,0.0,5.0,52,0.00,,,0.00,meteohub,2013-02-17 04:52:00,
2013-02-16 23:57:00,28.6,13.1,30.11,SW,233,1.0,6.0,52,0.00,,,0.00,meteohub,2013-02-17 04:57:00,